Вернуться в каталог

STARLINK-30612

АктивенСвязьVLEO
NORAD 58106·PAYLOAD·🇺🇸 United States

Запущен Oct 21, 2023 с Vandenberg Space Force Base

Loading…

Ближайшие Пролёты (ближайшие 24 часа)

TLE

СвежийSource: CelesTrak SupGP

Эпоха: Sep 14, 2026, 20:45 UTC

1 58106C 23161K   26257.86506944 -.00007552  00000+0 -22321-3 0  2577
2 58106  53.1588 349.9856 0001194  93.1480 149.4970 15.34382246    19

Отслеживайте STARLINK-30612 в реальном времени с AllMySat

Download on the App Store